FW7504 Weather Reports


time (UTC)temp
C
wind
direction
speed
KPH
gust
KPH
rain 1hr
cm
rain 24hr
cm
rain mn
cm
humidity
%
barometer
mb
20260510050100 15 0 0.0 0.0 0.00 0.00 0.00 86 1015.4
20260510045556 16 0 0.0 0.0 0.00 0.00 0.00 86 1015.4
20260510045051 16 0 0.0 0.0 0.00 0.00 0.00 86 1015.3
20260510044600 16 0 0.0 0.0 0.00 0.00 0.00 86 1015.4
20260510044053 16 0 0.0 0.0 0.00 0.00 0.00 86 1015.5
20260510043553 16 0 0.0 0.0 0.00 0.00 0.00 86 1015.5
20260510043053 16 0 0.0 0.0 0.00 0.00 0.00 86 1015.5
20260510042552 16 0 0.0 0.0 0.00 0.00 0.00 85 1015.5
20260510042053 16 0 0.0 0.0 0.00 0.00 0.00 85 1015.4
20260510041558 16 0 0.0 0.0 0.00 0.00 0.00 85 1015.5
20260510041052 16 0 0.0 0.0 0.00 0.00 0.00 84 1015.5
20260510040554 16 0 0.0 0.0 0.00 0.00 0.00 84 1015.4
20260510040053 16 0 0.0 0.0 0.00 0.00 0.00 84 1015.3
20260510035552 17 0 0.0 0.0 0.00 0.00 0.00 84 1015.3
20260510035056 17 0 0.0 0.0 0.00 0.00 0.00 83 1015.3
20260510034554 17 0 0.0 0.0 0.00 0.00 0.00 83 1015.2
20260510034052 17 0 0.0 0.0 0.00 0.00 0.00 83 1015.3
20260510033554 17 0 0.0 0.0 0.00 0.00 0.00 82 1015.2
20260510033128 17 0 0.0 0.0 0.00 0.00 0.00 82 1015.3
20260510032558 17 0 0.0 0.0 0.00 0.00 0.00 82 1015.4
20260510032054 17 0 0.0 0.0 0.00 0.00 0.00 82 1015.2
20260510031621 17 0 0.0 0.0 0.00 0.00 0.00 81 1015.2
20260510031055 17 0 0.0 0.0 0.00 0.00 0.00 81 1015.0
20260510030553 18 0 0.0 0.0 0.00 0.00 0.00 81 1015.3
20260510030057 18 0 0.0 0.0 0.00 0.00 0.00 81 1015.2
20260510025553 18 0 0.0 0.0 0.00 0.00 0.00 80 1015.1
20260510025053 18 0 0.0 0.0 0.00 0.00 0.00 80 1015.0
20260510024555 18 0 0.0 0.0 0.00 0.00 0.00 80 1014.8
20260510024052 18 0 0.0 0.0 0.00 0.00 0.00 79 1014.8
20260510023554 18 0 0.0 0.0 0.00 0.00 0.00 80 1014.7
20260510023054 18 0 0.0 0.0 0.00 0.00 0.00 80 1014.6
20260510022554 18 0 0.0 0.0 0.00 0.00 0.00 78 1014.5
20260510022053 18 0 0.0 0.0 0.00 0.00 0.00 78 1014.7
20260510021556 18 0 0.0 0.0 0.00 0.00 0.00 78 1014.6
20260510021052 19 0 0.0 0.0 0.00 0.00 0.00 77 1014.5
20260510020555 19 0 0.0 0.0 0.00 0.00 0.00 77 1014.3
20260510020053 19 0 0.0 0.0 0.00 0.00 0.00 77 1014.4
20260510015556 19 0 0.0 0.0 0.00 0.00 0.00 78 1014.4
20260510015052 19 0 0.0 0.0 0.00 0.00 0.00 77 1014.3
20260510014605 20 0 0.0 0.0 0.00 0.00 0.00 77 1014.2
20260510014052 20 0 0.0 0.0 0.00 0.00 0.00 76 1014.1
20260510013552 20 0 0.0 0.0 0.00 0.00 0.00 76 1014.1
20260510013054 20 0 0.0 0.0 0.00 0.00 0.00 76 1014.0
20260510012553 20 0 0.0 0.0 0.00 0.00 0.00 76 1014.1
20260510012056 20 0 0.0 0.0 0.00 0.00 0.00 75 1013.8
20260510011558 20 0 0.0 0.0 0.00 0.00 0.00 75 1013.8
20260510011051 20 0 0.0 0.0 0.00 0.00 0.00 73 1013.8
20260510010554 20 0 0.0 0.0 0.00 0.00 0.00 73 1013.6
20260510005552 21 0 0.0 1.6 0.00 0.00 0.00 71 1013.4
20260510005056 21 0 0.0 1.6 0.00 0.00 0.00 71 1013.3
20260510004556 21 0 0.0 1.6 0.00 0.00 0.00 71 1013.3
20260510004052 21 0 0.0 0.0 0.00 0.00 0.00 71 1013.2
20260510003550 21 0 0.0 0.0 0.00 0.00 0.00 71 1013.1
20260510003100 21 0 0.0 0.0 0.00 0.00 0.00 72 1013.1
20260510002553 21 0 0.0 0.0 0.00 0.00 0.00 72 1013.0
20260510002051 21 0 0.0 1.6 0.00 0.00 0.00 71 1012.8
20260510001553 21 0 0.0 1.6 0.00 0.00 0.00 71 1012.8
20260510001049 21 0 0.0 3.2 0.00 0.00 0.00 69 1012.7
20260510000553 21 0 0.0 4.8 0.00 0.00 0.00 70 1012.5
20260510000057 21 360 0.0 8.0 0.00 0.00 0.00 70 1012.4
20260509235555 21 0 1.6 8.0 0.00 0.00 0.00 70 1012.5
20260509235052 21 0 3.2 6.4 0.00 0.00 0.00 72 1012.8
20260509234606 21 360 0.0 3.2 0.00 0.00 0.00 76 1012.7
20260509234053 21 360 0.0 3.2 0.00 0.00 0.00 75 1012.5
20260509233554 22 0 0.0 4.8 0.00 0.00 0.00 75 1012.4
20260509233056 22 0 0.0 4.8 0.00 0.00 0.00 75 1012.5
20260509232552 22 360 0.0 6.4 0.00 0.00 0.00 75 1012.3
20260509232052 22 360 3.2 6.4 0.00 0.00 0.00 74 1012.3
20260509231553 22 0 0.0 4.8 0.00 0.00 0.00 75 1012.3
20260509231051 22 0 0.0 1.6 0.00 0.00 0.00 74 1012.2
20260509230552 22 0 0.0 3.2 0.00 0.00 0.00 74 1012.2
20260509230106 22 0 0.0 4.8 0.00 0.00 0.00 73 1012.1
20260509225552 22 360 1.6 4.8 0.00 0.00 0.00 72 1012.3
20260509225052 22 360 1.6 4.8 0.00 0.00 0.00 72 1012.2
20260509224552 23 0 0.0 4.8 0.00 0.00 0.00 70 1012.2
20260509224052 23 360 0.0 6.4 0.00 0.00 0.00 70 1012.2
20260509223553 23 0 0.0 6.4 0.00 0.00 0.00 70 1012.1
20260509223058 23 360 3.2 6.4 0.00 0.00 0.00 68 1012.2
20260509222554 23 360 1.6 4.8 0.00 0.00 0.00 70 1012.0
20260509222052 23 0 1.6 4.8 0.00 0.00 0.00 70 1012.0
20260509221553 23 0 0.0 6.4 0.00 0.00 0.00 66 1012.0
20260509221049 23 360 0.0 6.4 0.00 0.00 0.00 64 1011.9
20260509220552 23 360 1.6 6.4 0.00 0.00 0.00 63 1011.9
20260509215552 23 360 3.2 6.4 0.00 0.00 0.00 63 1011.8
20260509215052 23 360 1.6 4.8 0.00 0.00 0.00 62 1011.8
20260509214606 23 0 1.6 8.0 0.00 0.00 0.00 63 1011.8
20260509214052 23 360 1.6 8.0 0.00 0.00 0.00 60 1011.9
20260509213552 24 360 1.6 8.0 0.00 0.00 0.00 63 1011.8
20260509213101 23 0 0.0 8.0 0.00 0.00 0.00 63 1012.0
20260509212551 23 360 1.6 8.0 0.00 0.00 0.00 61 1011.9
20260509212052 23 360 3.2 8.0 0.00 0.00 0.00 60 1011.9
20260509211557 23 360 0.0 6.4 0.00 0.00 0.00 63 1011.8
20260509211052 23 0 1.6 6.4 0.00 0.00 0.00 63 1011.8
20260509210552 23 360 0.0 8.0 0.00 0.00 0.00 61 1011.9
20260509210100 23 360 3.2 12.9 0.00 0.00 0.00 59 1012.0
20260509205552 24 360 4.8 12.9 0.00 0.00 0.00 59 1012.0
20260509205052 24 360 3.2 8.0 0.00 0.00 0.00 59 1011.9
20260509204600 24 360 1.6 8.0 0.00 0.00 0.00 62 1011.9
20260509204052 23 360 1.6 8.0 0.00 0.00 0.00 60 1011.9
20260509203553 23 360 3.2 6.4 0.00 0.00 0.00 60 1011.8
20260509203101 23 360 3.2 6.4 0.00 0.00 0.00 61 1011.8
20260509202555 23 0 1.6 4.8 0.00 0.00 0.00 65 1011.7
20260509202052 23 360 1.6 4.8 0.00 0.00 0.00 64 1011.5
20260509201600 23 0 0.0 4.8 0.00 0.00 0.00 63 1011.6
20260509201052 23 360 1.6 4.8 0.00 0.00 0.00 63 1011.6
20260509200553 23 360 0.0 4.8 0.00 0.00 0.00 66 1011.6
20260509200103 23 0 0.0 3.2 0.00 0.00 0.00 68 1011.7
20260509195553 23 0 0.0 3.2 0.00 0.00 0.00 66 1011.8
20260509195056 23 360 1.6 3.2 0.00 0.00 0.00 65 1011.8
20260509194559 23 0 0.0 1.6 0.00 0.00 0.00 67 1012.0
20260509194056 23 0 0.0 0.0 0.00 0.00 0.00 67 1012.0
20260509193552 23 0 0.0 4.8 0.00 0.00 0.00 66 1012.0
20260509193058 23 0 0.0 4.8 0.00 0.00 0.00 67 1012.0
20260509192552 23 360 0.0 6.4 0.00 0.00 0.00 67 1012.1
20260509192052 23 0 1.6 6.4 0.00 0.00 0.00 65 1012.1
20260509191606 23 360 0.0 3.2 0.00 0.00 0.00 67 1012.0
20260509191055 23 360 0.0 3.2 0.00 0.00 0.00 65 1012.1
20260509190552 23 0 0.0 4.8 0.00 0.00 0.00 65 1012.2
20260509185552 23 360 1.6 4.8 0.00 0.00 0.00 63 1012.3
20260509185052 23 0 0.0 4.8 0.00 0.00 0.00 64 1012.5
20260509184602 23 0 0.0 3.2 0.00 0.00 0.00 64 1012.4
20260509184049 23 0 0.0 4.8 0.00 0.00 0.00 62 1012.5
20260509183552 23 0 0.0 4.8 0.00 0.00 0.00 64 1012.4
20260509183056 23 360 0.0 6.4 0.00 0.00 0.00 64 1012.4
20260509182552 23 360 1.6 6.4 0.00 0.00 0.00 63 1012.6
20260509182051 23 360 0.0 9.7 0.00 0.00 0.00 64 1012.5
20260509181602 23 360 1.6 9.7 0.00 0.00 0.00 64 1012.8
20260509181049 23 360 3.2 8.0 0.00 0.00 0.00 63 1012.3
20260509180552 23 360 0.0 6.4 0.00 0.00 0.00 65 1012.4
20260509180059 23 0 0.0 6.4 0.00 0.00 0.00 64 1012.3
20260509175552 23 360 1.6 6.4 0.00 0.00 0.00 62 1012.2
20260509175052 23 360 1.6 6.4 0.00 0.00 0.00 62 1012.2
20260509174604 23 360 1.6 6.4 0.00 0.00 0.00 62 1012.3
20260509174052 23 360 0.0 6.4 0.00 0.00 0.00 63 1012.2
20260509173551 23 360 0.0 8.0 0.00 0.00 0.00 65 1012.4
20260509173110 22 360 3.2 9.7 0.00 0.00 0.00 65 1012.5
20260509172553 23 360 1.6 12.9 0.00 0.00 0.00 66 1012.7
20260509172052 22 360 4.8 12.9 0.00 0.00 0.00 66 1013.0
20260509171604 22 360 3.2 8.0 0.00 0.00 0.00 66 1012.9
20260509171051 22 360 1.6 8.0 0.00 0.00 0.00 68 1013.0
20260509170556 22 360 3.2 8.0 0.00 0.00 0.00 67 1013.0
20260509170057 22 360 1.6 6.4 0.00 0.00 0.00 68 1013.0
20260509165549 21 0 1.6 8.0 0.00 0.00 0.00 68 1013.0
20260509165052 21 0 1.6 8.0 0.00 0.00 0.00 66 1013.2
20260509164557 21 360 4.8 8.0 0.00 0.00 0.00 67 1013.4
20260509164051 21 360 3.2 8.0 0.00 0.00 0.00 67 1013.3
20260509163553 21 0 3.2 8.0 0.00 0.00 0.00 67 1013.3
20260509163108 21 360 0.0 6.4 0.00 0.00 0.00 68 1013.3
20260509162552 21 0 1.6 6.4 0.00 0.00 0.00 70 1013.4
20260509162052 20 0 1.6 6.4 0.00 0.00 0.00 71 1013.3
20260509161606 20 360 1.6 8.0 0.00 0.00 0.00 71 1013.4
20260509161053 20 360 1.6 8.0 0.00 0.00 0.00 74 1013.3
20260509160549 20 360 1.6 8.0 0.00 0.00 0.00 73 1013.4
20260509160101 20 360 3.2 6.4 0.00 0.00 0.00 74 1013.6
20260509155549 19 0 0.0 8.0 0.00 0.00 0.00 76 1013.6
20260509155051 19 0 1.6 8.0 0.00 0.00 0.00 77 1013.7
20260509154623 19 360 1.6 6.4 0.00 0.00 0.00 75 1013.7
20260509154051 18 360 3.2 8.0 0.00 0.00 0.00 75 1013.8
20260509153549 18 360 3.2 8.0 0.00 0.00 0.00 76 1013.9
20260509153052 18 360 1.6 4.8 0.00 0.00 0.00 78 1013.8
20260509152551 18 0 0.0 4.8 0.00 0.00 0.00 79 1013.8
20260509152050 18 360 1.6 4.8 0.00 0.00 0.00 79 1013.8
20260509151554 18 360 1.6 6.4 0.00 0.00 0.00 79 1013.8
20260509151052 18 360 1.6 6.4 0.00 0.00 0.00 79 1013.8
20260509150552 17 360 0.0 4.8 0.00 0.00 0.00 80 1013.9
20260509150052 17 360 1.6 6.4 0.00 0.00 0.00 80 1013.8
20260509145552 17 360 1.6 6.4 0.00 0.00 0.00 79 1013.8
20260509145051 17 360 1.6 6.4 0.00 0.00 0.00 80 1013.9
20260509144609 17 360 3.2 8.0 0.00 0.00 0.00 80 1013.8
20260509144049 17 360 1.6 8.0 0.00 0.00 0.00 80 1014.0
20260509143551 17 360 1.6 6.4 0.00 0.00 0.00 82 1014.0
20260509143055 17 360 1.6 4.8 0.00 0.00 0.00 81 1014.0
20260509142551 17 0 1.6 4.8 0.00 0.00 0.00 82 1013.7
20260509142048 17 0 0.0 4.8 0.00 0.00 0.00 83 1013.6
20260509141555 17 0 1.6 4.8 0.00 0.00 0.00 82 1013.4
20260509141052 17 0 0.0 4.8 0.00 0.00 0.00 83 1013.4
20260509140552 16 360 1.6 4.8 0.00 0.00 0.00 83 1013.2
20260509140107 16 0 0.0 3.2 0.00 0.00 0.00 85 1013.3
20260509135552 16 0 0.0 3.2 0.00 0.00 0.00 85 1013.3
20260509135052 16 360 0.0 3.2 0.00 0.00 0.00 85 1013.0
20260509134555 16 0 0.0 4.8 0.00 0.00 0.00 86 1013.0
20260509134051 16 0 0.0 4.8 0.00 0.00 0.00 85 1013.0
20260509133551 16 360 0.0 3.2 0.00 0.00 0.00 86 1013.0
20260509133101 15 360 0.0 1.6 0.00 0.00 0.00 87 1013.2
20260509132549 15 0 0.0 1.6 0.00 0.00 0.00 87 1013.1
20260509132051 15 360 0.0 1.6 0.00 0.00 0.00 88 1013.2
20260509131602 15 0 0.0 1.6 0.00 0.00 0.00 87 1013.1
20260509131051 15 0 0.0 1.6 0.00 0.00 0.00 88 1013.2
20260509130551 15 0 0.0 1.6 0.00 0.00 0.00 88 1013.4
20260509130106 15 0 0.0 1.6 0.00 0.00 0.00 88 1013.3
20260509125552 14 0 0.0 1.6 0.00 0.00 0.00 89 1013.4
20260509125052 14 0 0.0 1.6 0.00 0.00 0.00 89 1013.4
20260509124600 14 0 0.0 1.6 0.00 0.00 0.00 89 1013.4
20260509124052 14 0 0.0 1.6 0.00 0.00 0.00 90 1013.4
20260509123552 13 360 0.0 0.0 0.00 0.00 0.00 90 1013.4
20260509123052 13 0 0.0 0.0 0.00 0.00 0.00 90 1013.2
20260509122551 13 0 0.0 0.0 0.00 0.00 0.00 90 1013.2
20260509122051 13 0 0.0 0.0 0.00 0.00 0.00 89 1013.3
20260509121601 13 0 0.0 0.0 0.00 0.00 0.00 89 1013.2
20260509121052 13 0 0.0 0.0 0.00 0.00 0.00 89 1013.0
20260509120552 13 0 0.0 0.0 0.00 0.00 0.00 89 1013.2
20260509120055 13 0 0.0 0.0 0.00 0.00 0.00 90 1013.1
20260509115548 13 0 0.0 0.0 0.00 0.00 0.00 90 1013.0
20260509115049 13 0 0.0 0.0 0.00 0.00 0.00 90 1013.0
20260509114552 13 0 0.0 0.0 0.00 0.00 0.00 89 1012.9
20260509114048 13 0 0.0 0.0 0.00 0.00 0.00 89 1012.9
20260509113549 13 0 0.0 1.6 0.00 0.00 0.00 89 1012.8
20260509113058 13 0 0.0 1.6 0.00 0.00 0.00 89 1012.8
20260509112554 13 0 0.0 0.0 0.00 0.00 0.00 89 1012.9
20260509112048 13 0 0.0 0.0 0.00 0.00 0.00 89 1012.7
20260509111602 13 0 0.0 0.0 0.00 0.00 0.00 89 1012.7
20260509111052 13 0 0.0 0.0 0.00 0.00 0.00 89 1012.8
20260509110551 13 0 0.0 1.6 0.00 0.00 0.00 89 1012.8
20260509110055 12 0 0.0 1.6 0.00 0.00 0.00 89 1012.8
20260509105551 12 0 0.0 0.0 0.00 0.00 0.00 89 1012.7
20260509105049 12 0 0.0 0.0 0.00 0.00 0.00 89 1012.7
20260509104551 12 0 0.0 0.0 0.00 0.00 0.00 89 1012.5
20260509104049 12 0 0.0 0.0 0.00 0.00 0.00 88 1012.7
20260509103551 12 0 0.0 0.0 0.00 0.00 0.00 88 1012.5
20260509103053 12 0 0.0 0.0 0.00 0.00 0.00 89 1012.5
20260509102548 12 0 0.0 0.0 0.00 0.00 0.00 89 1012.5
20260509102049 12 0 0.0 0.0 0.00 0.00 0.00 89 1012.8
20260509101558 12 0 0.0 0.0 0.00 0.00 0.00 89 1012.6
20260509101051 12 0 0.0 3.2 0.00 0.00 0.00 89 1012.6
20260509100552 12 0 0.0 3.2 0.00 0.00 0.00 89 1012.7
20260509100054 12 0 0.0 3.2 0.00 0.00 0.00 89 1012.7
20260509095554 12 0 0.0 0.0 0.00 0.00 0.00 89 1012.5
20260509095052 12 0 0.0 1.6 0.00 0.00 0.00 89 1012.4
20260509094552 12 0 0.0 1.6 0.00 0.00 0.00 89 1012.4
20260509094051 12 0 0.0 0.0 0.00 0.00 0.00 89 1012.3
20260509093551 12 0 0.0 0.0 0.00 0.00 0.00 90 1012.3
20260509093055 12 0 0.0 0.0 0.00 0.00 0.00 90 1012.4
20260509092551 12 0 0.0 0.0 0.00 0.00 0.00 90 1012.6
20260509092052 12 0 0.0 0.0 0.00 0.00 0.00 90 1012.6
20260509091553 12 0 0.0 0.0 0.00 0.00 0.00 90 1012.5
20260509091048 12 0 0.0 1.6 0.00 0.00 0.00 90 1012.7
20260509090552 12 0 0.0 1.6 0.00 0.00 0.00 90 1012.7
20260509090104 12 0 0.0 1.6 0.00 0.00 0.00 90 1013.0
20260509085551 11 0 0.0 0.0 0.00 0.00 0.00 90 1013.1
20260509085051 11 0 0.0 0.0 0.00 0.00 0.00 90 1013.2
20260509084600 11 0 0.0 1.6 0.00 0.00 0.00 90 1013.5
20260509084051 11 0 0.0 1.6 0.00 0.00 0.00 90 1013.4
20260509083551 11 0 0.0 0.0 0.00 0.00 0.00 90 1013.2
20260509083059 11 0 0.0 0.0 0.00 0.00 0.00 90 1013.3
20260509082551 11 0 0.0 0.0 0.00 0.00 0.00 90 1013.1
20260509082055 11 0 0.0 0.0 0.00 0.00 0.00 89 1013.1
20260509081555 11 0 0.0 0.0 0.00 0.00 0.00 89 1013.1
20260509081052 11 0 0.0 0.0 0.00 0.00 0.00 89 1012.9
20260509080548 11 0 0.0 0.0 0.00 0.00 0.00 89 1013.0
20260509075551 11 0 0.0 0.0 0.00 0.00 0.00 88 1012.8
20260509075052 11 0 0.0 0.0 0.00 0.00 0.00 88 1013.0
20260509074556 11 0 0.0 0.0 0.00 0.00 0.00 88 1012.7
20260509074052 11 0 0.0 0.0 0.00 0.00 0.00 88 1012.8
20260509073551 11 0 0.0 0.0 0.00 0.00 0.00 88 1012.6
20260509073054 11 0 0.0 0.0 0.00 0.00 0.00 87 1012.4
20260509072555 11 0 0.0 0.0 0.00 0.00 0.00 87 1012.4
20260509072051 11 0 0.0 0.0 0.00 0.00 0.00 87 1012.3
20260509071558 11 0 0.0 0.0 0.00 0.00 0.00 87 1012.3
20260509071052 11 0 0.0 0.0 0.00 0.00 0.00 87 1012.4
20260509070552 11 0 0.0 0.0 0.00 0.00 0.00 86 1012.4
20260509070100 11 0 0.0 0.0 0.00 0.00 0.00 86 1012.7
20260509065551 11 0 0.0 0.0 0.00 0.00 0.00 86 1012.9
20260509065051 11 0 0.0 0.0 0.00 0.00 0.00 86 1013.0
20260509064602 11 0 0.0 0.0 0.00 0.00 0.00 86 1012.9
20260509064051 11 0 0.0 0.0 0.00 0.00 0.00 86 1012.8
20260509063552 11 0 0.0 0.0 0.00 0.00 0.00 86 1012.9
20260509063109 11 0 0.0 0.0 0.00 0.00 0.00 85 1013.1
20260509062551 11 0 0.0 0.0 0.00 0.00 0.00 85 1013.0
20260509062053 12 0 0.0 0.0 0.00 0.00 0.00 84 1013.1
20260509061559 12 0 0.0 0.0 0.00 0.00 0.00 85 1012.9
20260509061052 12 0 0.0 0.0 0.00 0.00 0.00 85 1013.2
20260509060554 12 0 0.0 0.0 0.00 0.00 0.00 84 1013.3
20260509055548 12 0 0.0 0.0 0.00 0.00 0.00 83 1013.6
20260509055047 12 0 0.0 0.0 0.00 0.00 0.00 83 1013.7
20260509054555 12 0 0.0 0.0 0.00 0.00 0.00 83 1013.7
20260509054052 12 0 0.0 0.0 0.00 0.00 0.00 83 1013.6
20260509053554 12 0 0.0 0.0 0.00 0.00 0.00 82 1013.9
20260509053135 12 0 0.0 0.0 0.00 0.00 0.00 82 1013.8
20260509052548 12 0 0.0 0.0 0.00 0.00 0.00 82 1013.8
20260509052048 13 0 0.0 0.0 0.00 0.00 0.00 81 1013.9
20260509051551 13 0 0.0 0.0 0.00 0.00 0.00 81 1013.8
20260509051049 13 0 0.0 0.0 0.00 0.00 0.00 81 1013.8
20260509050548 13 0 0.0 0.0 0.00 0.00 0.00 80 1013.8